Home > Time Zones > World Clock > Weather > China > Wuhan > Past weeks

Flag for China Weather past 2 weeks in Wuhan, Hubei, China

Now
61 °F

Light rain. Fog.


Feels Like: 61 °F
Forecast: 60 / 73 °F
Wind: 3 mph from North

Location: Wuhan Airport

Current Time: Mar 29, 2015 at 8:52:42 PM

Latest Report: Mar 29, 2015 at 8:00 PM


Visibility: 2 mi

Pressure: 29.92 "Hg

Humidity: 94%

Dew point: 59 °F

Location of WuhanLocation

Historic Weather in Wuhan — Graph

°F

Wuhan temperature yesterday

Maximum temperature yesterday: 70 °F (at 4:00 PM)
Minimum temperature yesterday: 54 °F (at 5:00 AM)
Average temperature yesterday: 61 °F

Past Weeks' High & Low Weather Summary

 TemperatureHumidityPressure
High73 °F (Mar 22, 3:00 PM)100% (Mar 15, 7:00 AM)30.42 "Hg (Mar 15, 7:00 AM)
Low45 °F (Mar 27, 6:00 AM)29% (Mar 22, 5:00 PM)29.68 "Hg (Mar 17, 2:00 PM)
Average58 °F79%30.11 "Hg
* Reported Mar 14 7:00 PM — Mar 29 7:00 PM, Wuhan, Weather by CustomWeather, © 2015

Note: Actual official high and low records may vary slightly from our data, if they occured in-between our weather recording intervals... More about our weather records

Advertising

Wuhan weather history for previous 24 hours

 ConditionsComfort  
Time TempWeatherWind HumidityBarometerVisibility
7:00 PM
Sun, Mar 29
61 °FLight rain. Fog.6 mph94%29.89 "Hg2 mi
6:00 PM63 °FFog.13 mph88%29.89 "Hg1 mi
5:00 PM63 °FLight rain. Fog.8 mph94%29.89 "Hg1 mi
4:00 PM61 °FLight rain. Fog.10 mph94%29.89 "Hg1 mi
3:00 PM61 °FLight rain. Fog.10 mph94%29.92 "Hg1 mi
2:00 PM63 °FLight rain. Fog.8 mph94%29.95 "Hg1 mi
1:00 PM63 °FLight rain. Fog.6 mph88%29.98 "Hg1 mi
12:00 PM64 °FLight rain. Fog.8 mph78%29.98 "Hg2 mi
11:00 AM66 °FHaze.8 mph68%30.01 "Hg2 mi
10:00 AM66 °FHaze.8 mph68%30.01 "Hg2 mi
9:00 AM64 °FFog.8 mph78%30.01 "Hg2 mi
8:00 AM61 °FFog.6 mph83%30.01 "Hg1 mi
7:00 AM59 °FFog.6 mph88%29.98 "Hg1 mi
6:00 AM57 °FFog.6 mph94%29.98 "Hg2 mi
5:00 AM59 °FFog.6 mph88%29.98 "Hg2 mi
4:00 AM57 °FFog.3 mph94%29.98 "Hg2 mi
3:00 AM57 °FFog.3 mph94%30.01 "Hg3 mi
2:00 AM57 °FFog.3 mph94%30.01 "Hg3 mi
1:00 AM57 °FFog.3 mph94%30.04 "Hg2 mi
12:00 AM59 °FFog.3 mph88%30.04 "Hg3 mi
11:00 PM
Sat, Mar 28
59 °FFog.No wind94%30.04 "Hg3 mi
10:00 PM59 °FFog.1 mph94%30.04 "Hg3 mi
9:00 PM63 °FClear.3 mph88%30.04 "Hg4 mi
8:00 PM63 °FClear.1 mph83%30.01 "Hg5 mi
Weather by CustomWeather, © 2015

See weather overviewHow to use our weather pages